,,Stat5,,Stat1,,Stat2,,Stat3,,Stat4,,Wind1,,Wind1,
time,status,PA1M_AVG,status,PR1M_SUM,status,RH1M_AVG,status,SR1M_AVG,status,TA1M_AVG,status,W1dAve1m,status,W1sAve1m,
2002-06-27, 00:00:00,VALID,919.771,VALID,0,VALID,99.044,VALID,-0.0169808,VALID,19.5777,VALID,148,VALID,0.610156,
2002-06-27, 00:01:00,VALID,919.796,VALID,0,VALID,99.0516,VALID,-0.0169808,VALID,19.5745,VALID,134,VALID,0.486328,
2002-06-27, 00:02:00,VALID,919.789,VALID,0,VALID,99.0529,VALID,-0.0679233,VALID,19.5551,VALID,114,VALID,0.62546,
2002-06-27, 00:03:00,VALID,919.8,VALID,0,VALID,99.0326,VALID,-0.0509425,VALID,19.5302,VALID,77,VALID,0.655078,
2002-06-27, 00:04:00,VALID,919.789,VALID,0,VALID,98.983,VALID,-0.0679233,VALID,19.4525,VALID,40,VALID,0.710227,
2002-06-27, 00:05:00,VALID,919.782,VALID,0,VALID,98.9715,VALID,-0.0509425,VALID,19.3841,VALID,58,VALID,0.725223,
2002-06-27, 00:06:00,VALID,919.773,VALID,0,VALID,99.0109,VALID,-0.0169808,VALID,19.3645,VALID,65,VALID,0.639453,
2002-06-27, 00:07:00,VALID,919.752,VALID,0,VALID,99.0694,VALID,-0.0339617,VALID,19.3871,VALID,88,VALID,0.642411,
2002-06-27, 00:08:00,VALID,919.731,VALID,0,VALID,99.0949,VALID,-0.0509425,VALID,19.3869,VALID,107,VALID,0.798024,
2002-06-27, 00:09:00,VALID,919.725,VALID,0,VALID,99.1445,VALID,-0.0169808,VALID,19.4261,VALID,111,VALID,1.06855,
2002-06-27, 00:10:00,VALID,919.699,VALID,0,VALID,99.1699,VALID,-0.0169808,VALID,19.4455,VALID,109,VALID,1.18821,
2002-06-27, 00:11:00,VALID,919.671,VALID,0,VALID,99.1953,VALID,-0.0339617,VALID,19.4709,VALID,111,VALID,1.23058,
2002-06-27, 00:12:00,VALID,919.641,VALID,0,VALID,99.1699,VALID,0,VALID,19.4555,VALID,85,VALID,0.936022,
2002-06-27, 00:13:00,VALID,919.641,VALID,0,VALID,99.1534,VALID,-0.0169808,VALID,19.4229,VALID,104,VALID,0.966295,
2002-06-27, 00:14:00,VALID,919.637,VALID,0,VALID,99.1445,VALID,-0.0169808,VALID,19.3936,VALID,108,VALID,0.902114,
2002-06-27, 00:15:00,VALID,919.632,VALID,0,VALID,99.1585,VALID,0,VALID,19.4003,VALID,113,VALID,1.31152,
2002-06-27, 00:16:00,VALID,919.646,VALID,0,VALID,99.1826,VALID,0,VALID,19.4139,VALID,121,VALID,0.881155,
2002-06-27, 00:17:00,VALID,919.641,VALID,0,VALID,99.1648,VALID,-0.0509425,VALID,19.3814,VALID,117,VALID,0.524777,
2002-06-27, 00:18:00,VALID,919.64,VALID,0,VALID,99.1801,VALID,-0.0339617,VALID,19.3648,VALID,119,VALID,0.375,
2002-06-27, 00:19:00,VALID,919.624,VALID,0,VALID,99.1852,VALID,-0.0679233,VALID,19.3682,VALID,112,VALID,0.273884,
2002-06-27, 00:20:00,VALID,919.612,VALID,0,VALID,99.1661,VALID,-0.0509425,VALID,19.3262,VALID,97,VALID,0.32261,
2002-06-27, 00:21:00,VALID,919.587,VALID,0,VALID,99.1496,VALID,-0.0679233,VALID,19.278,VALID,80,VALID,0.714453,
2002-06-27, 00:22:00,VALID,919.557,VALID,0,VALID,99.1381,VALID,-0.0509425,VALID,19.2619,VALID,75,VALID,0.715909,
2002-06-27, 00:23:00,VALID,919.534,VALID,0,VALID,99.1674,VALID,-0.0339617,VALID,19.2552,VALID,94,VALID,0.808259,
2002-06-27, 00:24:00,VALID,919.539,VALID,0,VALID,99.2131,VALID,0,VALID,19.2706,VALID,125,VALID,0.967969,
2002-06-27, 00:25:00,VALID,919.539,VALID,0,VALID,99.2271,VALID,-0.0169808,VALID,19.3034,VALID,142,VALID,0.964509,
2002-06-27, 00:26:00,VALID,919.546,VALID,0,VALID,99.2258,VALID,0,VALID,19.3133,VALID,142,VALID,1.1721,
2002-06-27, 00:27:00,VALID,919.555,VALID,0,VALID,99.2437,VALID,0,VALID,19.3031,VALID,141,VALID,1.10801,
2002-06-27, 00:28:00,VALID,919.562,VALID,0,VALID,99.2309,VALID,0,VALID,19.3094,VALID,143,VALID,1.15009,
2002-06-27, 00:29:00,VALID,919.568,VALID,0,VALID,99.2475,VALID,0,VALID,19.3029,VALID,141,VALID,1.14129,
2002-06-27, 00:30:00,VALID,919.554,VALID,0,VALID,99.2665,VALID,0,VALID,19.3325,VALID,127,VALID,0.524219,
2002-06-27, 00:31:00,VALID,919.547,VALID,0,VALID,99.2653,VALID,0,VALID,19.3287,VALID,104,VALID,0.574777,
2002-06-27, 00:32:00,VALID,919.531,VALID,0,VALID,99.2487,VALID,0,VALID,19.3158,VALID,79,VALID,0.728631,
2002-06-27, 00:33:00,VALID,919.515,VALID,0,VALID,99.2195,VALID,0,VALID,19.2448,VALID,84,VALID,0.642383,
2002-06-27, 00:34:00,VALID,919.503,VALID,0,VALID,99.2398,VALID,0,VALID,19.2579,VALID,94,VALID,0.755919,
2002-06-27, 00:35:00,VALID,919.485,VALID,0,VALID,99.2538,VALID,0,VALID,19.2674,VALID,96,VALID,0.830357,
2002-06-27, 00:36:00,VALID,919.473,VALID,0,VALID,99.2513,VALID,0,VALID,19.2711,VALID,108,VALID,0.880273,
2002-06-27, 00:37:00,VALID,919.44,VALID,0,VALID,99.2437,VALID,0,VALID,19.2512,VALID,108,VALID,0.936384,
2002-06-27, 00:38:00,VALID,919.426,VALID,0,VALID,99.2475,VALID,0,VALID,19.2485,VALID,116,VALID,1.47289,
2002-06-27, 00:39:00,VALID,919.417,VALID,0,VALID,99.2564,VALID,0.0169808,VALID,19.248,VALID,113,VALID,1.46582,
2002-06-27, 00:40:00,VALID,919.408,VALID,0,VALID,99.2843,VALID,-0.0169808,VALID,19.2478,VALID,103,VALID,1.15909,
2002-06-27, 00:41:00,VALID,919.411,VALID,0,VALID,99.2754,VALID,0,VALID,19.2452,VALID,106,VALID,1.17991,
2002-06-27, 00:42:00,VALID,919.43,VALID,0,VALID,99.2945,VALID,0,VALID,19.248,VALID,81,VALID,1.05,
2002-06-27, 00:43:00,VALID,919.432,VALID,0,VALID,99.3072,VALID,0.0339617,VALID,19.2482,VALID,98,VALID,1.0404,
2002-06-27, 00:44:00,VALID,919.449,VALID,0,VALID,99.2996,VALID,-0.0169808,VALID,19.2448,VALID,99,VALID,0.9375,
2002-06-27, 00:45:00,VALID,919.445,VALID,0,VALID,99.2767,VALID,-0.0169808,VALID,19.206,VALID,111,VALID,0.975391,
2002-06-27, 00:46:00,VALID,919.416,VALID,0,VALID,99.2754,VALID,0,VALID,19.1903,VALID,101,VALID,1.06487,
2002-06-27, 00:47:00,VALID,919.398,VALID,0,VALID,99.2767,VALID,0.0339617,VALID,19.1735,VALID,112,VALID,1.29643,
2002-06-27, 00:48:00,VALID,919.372,VALID,0,VALID,99.278,VALID,0,VALID,19.1643,VALID,119,VALID,0.608789,
2002-06-27, 00:49:00,VALID,919.367,VALID,0,VALID,99.2932,VALID,0,VALID,19.1712,VALID,130,VALID,0.862277,
2002-06-27, 00:50:00,VALID,919.352,VALID,0,VALID,99.3021,VALID,0.0169808,VALID,19.158,VALID,139,VALID,1.13534,
2002-06-27, 00:51:00,VALID,919.33,VALID,0,VALID,99.3009,VALID,0.0169808,VALID,19.164,VALID,109,VALID,0.544531,
2002-06-27, 00:52:00,VALID,919.325,VALID,0,VALID,99.2882,VALID,0.0169808,VALID,19.122,VALID,85,VALID,0.328125,
2002-06-27, 00:53:00,VALID,919.314,VALID,0,VALID,99.2805,VALID,0,VALID,19.0763,VALID,71,VALID,0.628571,
2002-06-27, 00:54:00,VALID,919.308,VALID,0,VALID,99.292,VALID,0.0169808,VALID,19.0738,VALID,77,VALID,0.837109,
2002-06-27, 00:55:00,VALID,919.307,VALID,0,VALID,99.2996,VALID,0,VALID,19.0867,VALID,107,VALID,0.82567,
2002-06-27, 00:56:00,VALID,919.311,VALID,0,VALID,99.3034,VALID,0.0509425,VALID,19.0704,VALID,140,VALID,0.911075,
2002-06-27, 00:57:00,VALID,919.305,VALID,0,VALID,99.3072,VALID,0.0339617,VALID,19.0634,VALID,139,VALID,0.6875,
2002-06-27, 00:58:00,VALID,919.297,VALID,0,VALID,99.3123,VALID,0.0169808,VALID,19.0602,VALID,136,VALID,0.938684,
2002-06-27, 00:59:00,VALID,919.303,VALID,0,VALID,99.3047,VALID,0.0509425,VALID,19.0637,VALID,132,VALID,0.701339,
2002-06-27, 01:00:00,VALID,919.292,VALID,0,VALID,99.3098,VALID,0.0679233,VALID,19.0572,VALID,108,VALID,0.832617,
2002-06-27, 01:01:00,VALID,919.282,VALID,0,VALID,99.306,VALID,0.0339617,VALID,19.0309,VALID,90,VALID,0.803348,
2002-06-27, 01:02:00,VALID,919.273,VALID,0,VALID,99.3072,VALID,0.0679233,VALID,19.0249,VALID,94,VALID,0.870634,
2002-06-27, 01:03:00,VALID,919.257,VALID,0,VALID,99.311,VALID,0.0339617,VALID,19.018,VALID,110,VALID,0.85293,
2002-06-27, 01:04:00,VALID,919.247,VALID,0,VALID,99.3009,VALID,0.0169808,VALID,18.9968,VALID,118,VALID,0.514915,
2002-06-27, 01:05:00,VALID,919.236,VALID,0,VALID,99.292,VALID,0.0169808,VALID,18.9444,VALID,114,VALID,0.555357,
2002-06-27, 01:06:00,VALID,919.21,VALID,0,VALID,99.2805,VALID,0.0169808,VALID,18.922,VALID,128,VALID,0.581445,
2002-06-27, 01:07:00,VALID,919.203,VALID,0,VALID,99.2818,VALID,0,VALID,18.9031,VALID,142,VALID,0.708705,
2002-06-27, 01:08:00,VALID,919.195,VALID,0,VALID,99.306,VALID,0.0169808,VALID,18.9031,VALID,146,VALID,0.759191,
2002-06-27, 01:09:00,VALID,919.185,VALID,0,VALID,99.3199,VALID,0,VALID,18.9153,VALID,141,VALID,0.721289,
2002-06-27, 01:10:00,VALID,919.178,VALID,0,VALID,99.3301,VALID,0,VALID,18.9285,VALID,149,VALID,0.74858,
2002-06-27, 01:11:00,VALID,919.172,VALID,0,VALID,99.3352,VALID,0,VALID,18.9317,VALID,145,VALID,0.870313,
2002-06-27, 01:12:00,VALID,919.178,VALID,0,VALID,99.339,VALID,0.0169808,VALID,18.9253,VALID,148,VALID,0.794727,
2002-06-27, 01:13:00,VALID,919.164,VALID,0,VALID,99.3466,VALID,0,VALID,18.9255,VALID,150,VALID,0.817411,
2002-06-27, 01:14:00,VALID,919.165,VALID,0,VALID,99.3327,VALID,0,VALID,18.926,VALID,144,VALID,0.994256,
2002-06-27, 01:15:00,VALID,919.163,VALID,0,VALID,99.3314,VALID,0,VALID,18.8897,VALID,143,VALID,0.921289,
2002-06-27, 01:16:00,VALID,919.156,VALID,0,VALID,99.3301,VALID,0.0169808,VALID,18.8674,VALID,138,VALID,0.683949,
2002-06-27, 01:17:00,VALID,919.14,VALID,0,VALID,99.3238,VALID,0.0169808,VALID,18.8607,VALID,132,VALID,0.710491,
2002-06-27, 01:18:00,VALID,919.127,VALID,0,VALID,99.3263,VALID,0,VALID,18.8512,VALID,122,VALID,0.268359,
2002-06-27, 01:19:00,VALID,919.106,VALID,0,VALID,99.3327,VALID,0,VALID,18.8154,VALID,109,VALID,0.572321,
2002-06-27, 01:20:00,VALID,919.093,VALID,0,VALID,99.3365,VALID,0,VALID,18.8284,VALID,121,VALID,0.722886,
2002-06-27, 01:21:00,VALID,919.072,VALID,0,VALID,99.3454,VALID,0.0169808,VALID,18.845,VALID,138,VALID,0.712305,
2002-06-27, 01:22:00,VALID,919.066,VALID,0,VALID,99.3632,VALID,0,VALID,18.842,VALID,140,VALID,0.816761,
2002-06-27, 01:23:00,VALID,919.052,VALID,0,VALID,99.3695,VALID,0,VALID,18.8584,VALID,145,VALID,0.89442,
2002-06-27, 01:24:00,VALID,919.053,VALID,0,VALID,99.3734,VALID,-0.0169808,VALID,18.8514,VALID,137,VALID,0.746289,
2002-06-27, 01:25:00,VALID,919.056,VALID,0,VALID,99.3759,VALID,-0.101885,VALID,18.8598,VALID,155,VALID,0.590402,
2002-06-27, 01:26:00,VALID,919.049,VALID,0,VALID,99.3606,VALID,0.0339617,VALID,18.8157,VALID,149,VALID,0.575368,
2002-06-27, 01:27:00,VALID,919.04,VALID,0,VALID,99.3505,VALID,0.101885,VALID,18.7991,VALID,123,VALID,0.688281,
2002-06-27, 01:28:00,VALID,919.009,VALID,0,VALID,99.3441,VALID,0.101885,VALID,18.7499,VALID,105,VALID,0.722775,
2002-06-27, 01:29:00,VALID,919.003,VALID,0,VALID,99.3377,VALID,0.0849042,VALID,18.7146,VALID,107,VALID,0.891071,
2002-06-27, 01:30:00,VALID,918.98,VALID,0,VALID,99.3606,VALID,0.101885,VALID,18.7179,VALID,114,VALID,0.853906,
2002-06-27, 01:31:00,VALID,918.962,VALID,0,VALID,99.3606,VALID,0.101885,VALID,18.7114,VALID,102,VALID,0.766741,
2002-06-27, 01:32:00,VALID,918.969,VALID,0,VALID,99.3695,VALID,0.0849042,VALID,18.7049,VALID,91,VALID,0.808594,
2002-06-27, 01:33:00,VALID,918.968,VALID,0,VALID,99.3823,VALID,0.101885,VALID,18.692,VALID,107,VALID,1.02676,
2002-06-27, 01:34:00,VALID,918.966,VALID,0,VALID,99.381,VALID,0.118866,VALID,18.6881,VALID,110,VALID,0.963305,
2002-06-27, 01:35:00,VALID,918.963,VALID,0,VALID,99.3886,VALID,0.101885,VALID,18.692,VALID,121,VALID,0.631696,
2002-06-27, 01:36:00,VALID,918.965,VALID,0,VALID,99.3784,VALID,0.101885,VALID,18.6756,VALID,107,VALID,0.759375,
2002-06-27, 01:37:00,VALID,918.966,VALID,0,VALID,99.3721,VALID,0.101885,VALID,18.6595,VALID,97,VALID,0.597768,
2002-06-27, 01:38:00,VALID,918.978,VALID,0,VALID,99.381,VALID,0.118866,VALID,18.6371,VALID,102,VALID,0.512868,
2002-06-27, 01:39:00,VALID,918.959,VALID,0,VALID,99.3759,VALID,0.135847,VALID,18.6143,VALID,74,VALID,0.646289,
2002-06-27, 01:40:00,VALID,918.949,VALID,0,VALID,99.3873,VALID,0.135847,VALID,18.5852,VALID,51,VALID,0.591146,
2002-06-27, 01:41:00,VALID,918.947,VALID,0,VALID,99.3454,VALID,0.0339617,VALID,18.5119,VALID,49,VALID,0.662277,
2002-06-27, 01:42:00,VALID,918.923,VALID,0,VALID,99.306,VALID,0.0509425,VALID,18.4445,VALID,63,VALID,0.773047,
2002-06-27, 01:43:00,VALID,918.911,VALID,0,VALID,99.292,VALID,0,VALID,18.3929,VALID,77,VALID,0.86317,
2002-06-27, 01:44:00,VALID,918.899,VALID,0,VALID,99.3174,VALID,0.0169808,VALID,18.3998,VALID,93,VALID,1.03562,
2002-06-27, 01:45:00,VALID,918.883,VALID,0,VALID,99.3619,VALID,0.0169808,VALID,18.4254,VALID,91,VALID,1.14121,
2002-06-27, 01:46:00,VALID,918.856,VALID,0,VALID,99.3632,VALID,0,VALID,18.4187,VALID,87,VALID,0.999527,
2002-06-27, 01:47:00,VALID,918.856,VALID,0,VALID,99.3339,VALID,0,VALID,18.3707,VALID,87,VALID,0.996205,
2002-06-27, 01:48:00,VALID,918.848,VALID,0,VALID,99.3149,VALID,0,VALID,18.3287,VALID,85,VALID,1.04844,
2002-06-27, 01:49:00,VALID,918.846,VALID,0,VALID,99.3047,VALID,0.0169808,VALID,18.2669,VALID,85,VALID,1.23571,
2002-06-27, 01:50:00,VALID,918.849,VALID,0,VALID,99.3199,VALID,0.0169808,VALID,18.2415,VALID,86,VALID,1.29527,
2002-06-27, 01:51:00,VALID,918.854,VALID,0,VALID,99.3568,VALID,0.0339617,VALID,18.2344,VALID,91,VALID,1.2248,
2002-06-27, 01:52:00,VALID,918.862,VALID,0,VALID,99.3797,VALID,0,VALID,18.2805,VALID,97,VALID,1.49361,
2002-06-27, 01:53:00,VALID,918.853,VALID,0,VALID,99.4357,VALID,0.0339617,VALID,18.3124,VALID,102,VALID,1.47121,
2002-06-27, 01:54:00,VALID,918.847,VALID,0,VALID,99.4382,VALID,0.0169808,VALID,18.335,VALID,104,VALID,1.57695,
2002-06-27, 01:55:00,VALID,918.851,VALID,0,VALID,99.4433,VALID,0.0169808,VALID,18.3151,VALID,105,VALID,1.53013,
2002-06-27, 01:56:00,VALID,918.854,VALID,0,VALID,99.4522,VALID,0.0169808,VALID,18.3218,VALID,112,VALID,1.59122,
2002-06-27, 01:57:00,VALID,918.85,VALID,0,VALID,99.456,VALID,0.0339617,VALID,18.3317,VALID,118,VALID,1.19258,
2002-06-27, 01:58:00,VALID,918.85,VALID,0,VALID,99.456,VALID,0,VALID,18.3354,VALID,119,VALID,1.08617,
2002-06-27, 01:59:00,VALID,918.854,VALID,0,VALID,99.4535,VALID,0,VALID,18.3317,VALID,107,VALID,0.955357,
2002-06-27, 02:00:00,VALID,918.85,VALID,0,VALID,99.4535,VALID,0,VALID,18.3347,VALID,100,VALID,1.33301,
2002-06-27, 02:01:00,VALID,918.843,VALID,0,VALID,99.4446,VALID,0,VALID,18.2992,VALID,87,VALID,1.23705,
2002-06-27, 02:02:00,VALID,918.851,VALID,0,VALID,99.4522,VALID,0,VALID,18.3163,VALID,100,VALID,1.61351,
2002-06-27, 02:03:00,VALID,918.832,VALID,0,VALID,99.4408,VALID,0,VALID,18.2898,VALID,77,VALID,0.969141,
2002-06-27, 02:04:00,VALID,918.83,VALID,0,VALID,99.4229,VALID,0,VALID,18.2711,VALID,74,VALID,1.24787,
2002-06-27, 02:05:00,VALID,918.821,VALID,0,VALID,99.4242,VALID,0.0169808,VALID,18.2579,VALID,96,VALID,1.27277,
2002-06-27, 02:06:00,VALID,918.826,VALID,0,VALID,99.4204,VALID,0.0169808,VALID,18.2605,VALID,99,VALID,1.05586,
2002-06-27, 02:07:00,VALID,918.824,VALID,0,VALID,99.4204,VALID,0,VALID,18.2741,VALID,98,VALID,1.29554,
2002-06-27, 02:08:00,VALID,918.814,VALID,0,VALID,99.4204,VALID,0,VALID,18.2579,VALID,103,VALID,1.22151,
2002-06-27, 02:09:00,VALID,918.811,VALID,0,VALID,99.4102,VALID,0,VALID,18.2713,VALID,98,VALID,1.10098,
2002-06-27, 02:10:00,VALID,918.793,VALID,0,VALID,99.4001,VALID,0,VALID,18.2582,VALID,118,VALID,0.898674,
2002-06-27, 02:11:00,VALID,918.787,VALID,0,VALID,99.4013,VALID,0.0169808,VALID,18.2575,VALID,103,VALID,0.85558,
2002-06-27, 02:12:00,VALID,918.752,VALID,0,VALID,99.3912,VALID,0,VALID,18.2547,VALID,116,VALID,1.18125,
2002-06-27, 02:13:00,VALID,918.727,VALID,0,VALID,99.3721,VALID,0,VALID,18.2353,VALID,73,VALID,0.667634,
2002-06-27, 02:14:00,VALID,918.707,VALID,0,VALID,99.3352,VALID,0.0169808,VALID,18.1834,VALID,78,VALID,0.880055,
2002-06-27, 02:15:00,VALID,918.684,VALID,0,VALID,99.3505,VALID,0,VALID,18.1802,VALID,68,VALID,0.972461,
2002-06-27, 02:16:00,VALID,918.667,VALID,0,VALID,99.353,VALID,-0.0169808,VALID,18.1703,VALID,65,VALID,0.898201,
2002-06-27, 02:17:00,VALID,918.651,VALID,0,VALID,99.3416,VALID,0,VALID,18.1574,VALID,76,VALID,1.04397,
2002-06-27, 02:18:00,VALID,918.634,VALID,0,VALID,99.3365,VALID,-0.0169808,VALID,18.1647,VALID,93,VALID,0.853516,
2002-06-27, 02:19:00,VALID,918.619,VALID,0,VALID,99.3288,VALID,0,VALID,18.1511,VALID,120,VALID,0.65625,
2002-06-27, 02:20:00,VALID,918.622,VALID,0,VALID,99.3238,VALID,0.0169808,VALID,18.1447,VALID,138,VALID,0.970358,
2002-06-27, 02:21:00,VALID,918.604,VALID,0,VALID,99.3276,VALID,0,VALID,18.132,VALID,126,VALID,0.969727,
2002-06-27, 02:22:00,VALID,918.593,VALID,0,VALID,99.339,VALID,0.0169808,VALID,18.1449,VALID,109,VALID,1.35795,
2002-06-27, 02:23:00,VALID,918.577,VALID,0,VALID,99.3492,VALID,0.0169808,VALID,18.161,VALID,94,VALID,1.4192,
2002-06-27, 02:24:00,VALID,918.579,VALID,0,VALID,99.353,VALID,0.0169808,VALID,18.1931,VALID,88,VALID,1.18242,
2002-06-27, 02:25:00,VALID,918.609,VALID,0,VALID,99.3263,VALID,0.0339617,VALID,18.1936,VALID,101,VALID,1.2096,
2002-06-27, 02:26:00,VALID,918.638,VALID,0,VALID,99.2869,VALID,0.0339617,VALID,18.1966,VALID,115,VALID,0.793658,
2002-06-27, 02:27:00,VALID,918.678,VALID,0,VALID,99.2258,VALID,0.0169808,VALID,18.1839,VALID,128,VALID,0.820898,
2002-06-27, 02:28:00,VALID,918.702,VALID,0,VALID,99.189,VALID,0.0339617,VALID,18.1643,VALID,124,VALID,0.9259,
2002-06-27, 02:29:00,VALID,918.716,VALID,0,VALID,99.1712,VALID,0.0169808,VALID,18.1578,VALID,103,VALID,1.05938,
2002-06-27, 02:30:00,VALID,918.73,VALID,0,VALID,99.133,VALID,0,VALID,18.1546,VALID,99,VALID,1.15488,
2002-06-27, 02:31:00,VALID,918.721,VALID,0,VALID,99.1025,VALID,0,VALID,18.1576,VALID,102,VALID,1.03906,
2002-06-27, 02:32:00,VALID,918.701,VALID,0,VALID,99.0415,VALID,0,VALID,18.1315,VALID,94,VALID,0.907399,
2002-06-27, 02:33:00,VALID,918.685,VALID,0,VALID,99.002,VALID,0,VALID,18.1221,VALID,89,VALID,0.883203,
2002-06-27, 02:34:00,VALID,918.682,VALID,0,VALID,98.9308,VALID,0.0169808,VALID,18.0995,VALID,85,VALID,0.702652,
2002-06-27, 02:35:00,VALID,918.662,VALID,0,VALID,98.9448,VALID,0.0339617,VALID,18.0872,VALID,101,VALID,0.827455,
2002-06-27, 02:36:00,VALID,918.648,VALID,0,VALID,98.9664,VALID,0,VALID,18.1001,VALID,119,VALID,1.0334,
2002-06-27, 02:37:00,VALID,918.614,VALID,0,VALID,98.9194,VALID,0,VALID,18.0965,VALID,121,VALID,1.23958,
2002-06-27, 02:38:00,VALID,918.586,VALID,0,VALID,98.88,VALID,0.0169808,VALID,18.0902,VALID,119,VALID,1.32835,
2002-06-27, 02:39:00,VALID,918.559,VALID,0,VALID,98.8431,VALID,0.0169808,VALID,18.0902,VALID,115,VALID,1.30078,
2002-06-27, 02:40:00,VALID,918.559,VALID,0,VALID,98.8278,VALID,0,VALID,18.1001,VALID,113,VALID,1.52841,
2002-06-27, 02:41:00,VALID,918.539,VALID,0,VALID,98.7401,VALID,0,VALID,18.1029,VALID,115,VALID,1.58103,
2002-06-27, 02:42:00,VALID,918.526,VALID,0,VALID,98.6206,VALID,0.0169808,VALID,18.0992,VALID,117,VALID,1.28125,
2002-06-27, 02:43:00,VALID,918.525,VALID,0,VALID,98.4731,VALID,0,VALID,18.1193,VALID,125,VALID,1.275,
2002-06-27, 02:44:00,VALID,918.514,VALID,0,VALID,98.3497,VALID,0.0169808,VALID,18.1193,VALID,128,VALID,1.19646,
2002-06-27, 02:45:00,VALID,918.52,VALID,0,VALID,98.1958,VALID,0.0169808,VALID,18.1228,VALID,129,VALID,1.22637,
2002-06-27, 02:46:00,VALID,918.504,VALID,0,VALID,98.0522,VALID,-0.0169808,VALID,18.1488,VALID,121,VALID,1.32031,
2002-06-27, 02:47:00,VALID,918.512,VALID,0,VALID,97.8665,VALID,0.0169808,VALID,18.1481,VALID,118,VALID,1.15089,
2002-06-27, 02:48:00,VALID,918.499,VALID,0,VALID,97.6122,VALID,0,VALID,18.1716,VALID,113,VALID,1.33047,
2002-06-27, 02:49:00,VALID,918.504,VALID,0,VALID,97.3795,VALID,-0.0169808,VALID,18.171,VALID,113,VALID,1.02567,
2002-06-27, 02:50:00,VALID,918.513,VALID,0,VALID,97.115,VALID,0,VALID,18.1876,VALID,117,VALID,1.18865,
2002-06-27, 02:51:00,VALID,918.512,VALID,0,VALID,96.8975,VALID,-0.0169808,VALID,18.1742,VALID,115,VALID,1.19277,
2002-06-27, 02:52:00,VALID,918.509,VALID,0,VALID,96.6241,VALID,0,VALID,18.174,VALID,96,VALID,0.993845,
2002-06-27, 02:53:00,VALID,918.511,VALID,0,VALID,96.2249,VALID,-0.0169808,VALID,18.1391,VALID,81,VALID,0.838393,
2002-06-27, 02:54:00,VALID,918.503,VALID,0,VALID,96.263,VALID,0,VALID,18.0939,VALID,83,VALID,0.838281,
2002-06-27, 02:55:00,VALID,918.504,VALID,0,VALID,96.5084,VALID,-0.0339617,VALID,18.0875,VALID,95,VALID,0.963839,
2002-06-27, 02:56:00,VALID,918.475,VALID,0,VALID,96.5809,VALID,0.0169808,VALID,18.0838,VALID,114,VALID,1.09582,
2002-06-27, 02:57:00,VALID,918.464,VALID,0,VALID,96.5097,VALID,-0.0169808,VALID,18.0875,VALID,121,VALID,1.35742,
2002-06-27, 02:58:00,VALID,918.441,VALID,0,VALID,96.4512,VALID,0,VALID,18.1006,VALID,115,VALID,1.40459,
2002-06-27, 02:59:00,VALID,918.427,VALID,0,VALID,96.3813,VALID,0,VALID,18.123,VALID,106,VALID,1.38393,
2002-06-27, 03:00:00,VALID,918.405,VALID,0,VALID,96.1702,VALID,-0.0169808,VALID,18.1516,VALID,112,VALID,1.27402,
2002-06-27, 03:01:00,VALID,918.41,VALID,0,VALID,95.8993,VALID,-0.0339617,VALID,18.191,VALID,103,VALID,1.16027,
2002-06-27, 03:02:00,VALID,918.404,VALID,0,VALID,94.9978,VALID,0,VALID,18.168,VALID,78,VALID,0.726563,
2002-06-27, 03:03:00,VALID,918.399,VALID,0,VALID,94.9939,VALID,0,VALID,18.1262,VALID,87,VALID,0.537891,
2002-06-27, 03:04:00,VALID,918.403,VALID,0,VALID,95.2495,VALID,0,VALID,18.1098,VALID,108,VALID,0.45715,
2002-06-27, 03:05:00,VALID,918.408,VALID,0,VALID,95.308,VALID,-0.0169808,VALID,18.084,VALID,126,VALID,0.801116,
2002-06-27, 03:06:00,VALID,918.411,VALID,0,VALID,95.4975,VALID,0.0339617,VALID,18.0639,VALID,123,VALID,0.640625,
2002-06-27, 03:07:00,VALID,918.431,VALID,0,VALID,95.6526,VALID,0,VALID,18.0847,VALID,108,VALID,0.677009,
2002-06-27, 03:08:00,VALID,918.426,VALID,0,VALID,95.6819,VALID,-0.0169808,VALID,18.0586,VALID,85,VALID,0.784237,
2002-06-27, 03:09:00,VALID,918.423,VALID,0,VALID,95.6768,VALID,0,VALID,18.0362,VALID,61,VALID,0.761133,
2002-06-27, 03:10:00,VALID,918.428,VALID,0,VALID,95.3475,VALID,0,VALID,18.0169,VALID,67,VALID,0.575047,
2002-06-27, 03:11:00,VALID,918.434,VALID,0,VALID,95.1631,VALID,0,VALID,17.9553,VALID,56,VALID,0.504018,
2002-06-27, 03:12:00,VALID,918.435,VALID,0,VALID,95.6755,VALID,0,VALID,17.923,VALID,76,VALID,0.624219,
2002-06-27, 03:13:00,VALID,918.453,VALID,0,VALID,95.5713,VALID,-0.0169808,VALID,17.9389,VALID,61,VALID,0.38192,
2002-06-27, 03:14:00,VALID,918.455,VALID,0,VALID,95.102,VALID,0,VALID,17.8683,VALID,62,VALID,0.462086,
2002-06-27, 03:15:00,VALID,918.439,VALID,0,VALID,95.4835,VALID,-0.0169808,VALID,17.8132,VALID,76,VALID,0.766406,
2002-06-27, 03:16:00,VALID,918.426,VALID,0,VALID,95.5267,VALID,0.0169808,VALID,17.7777,VALID,74,VALID,0.831913,
2002-06-27, 03:17:00,VALID,918.401,VALID,0,VALID,96.0252,VALID,-0.0169808,VALID,17.7194,VALID,83,VALID,0.958705,
2002-06-27, 03:18:00,VALID,918.387,VALID,0,VALID,96.6992,VALID,0.0169808,VALID,17.7422,VALID,86,VALID,1.01875,
2002-06-27, 03:19:00,VALID,918.371,VALID,0,VALID,96.9408,VALID,0,VALID,17.7678,VALID,89,VALID,0.757813,
2002-06-27, 03:20:00,VALID,918.37,VALID,0,VALID,96.7704,VALID,0,VALID,17.7486,VALID,90,VALID,0.460018,
2002-06-27, 03:21:00,VALID,918.369,VALID,0,VALID,96.9535,VALID,0.0169808,VALID,17.7226,VALID,91,VALID,0.452344,
2002-06-27, 03:22:00,VALID,918.372,VALID,0,VALID,97.0845,VALID,0.0339617,VALID,17.7221,VALID,129,VALID,0.613636,
2002-06-27, 03:23:00,VALID,918.394,VALID,0,VALID,97.0679,VALID,0.0169808,VALID,17.7032,VALID,130,VALID,0.737277,
2002-06-27, 03:24:00,VALID,918.392,VALID,0,VALID,97.3629,VALID,0.0339617,VALID,17.7323,VALID,121,VALID,0.83457,
2002-06-27, 03:25:00,VALID,918.397,VALID,0,VALID,97.4647,VALID,0,VALID,17.7844,VALID,102,VALID,0.769643,
2002-06-27, 03:26:00,VALID,918.364,VALID,0,VALID,95.9909,VALID,0,VALID,17.6684,VALID,67,VALID,0.480469,
2002-06-27, 03:27:00,VALID,918.358,VALID,0,VALID,94.9939,VALID,0,VALID,17.4486,VALID,64,VALID,0.566992,
2002-06-27, 03:28:00,VALID,918.344,VALID,0,VALID,94.9418,VALID,0,VALID,17.319,VALID,55,VALID,0.786222,
2002-06-27, 03:29:00,VALID,918.33,VALID,0,VALID,95.8701,VALID,0,VALID,17.2899,VALID,55,VALID,0.760714,
2002-06-27, 03:30:00,VALID,918.324,VALID,0,VALID,96.4385,VALID,0,VALID,17.342,VALID,56,VALID,0.628125,
2002-06-27, 03:31:00,VALID,918.337,VALID,0,VALID,96.5415,VALID,0,VALID,17.3547,VALID,56,VALID,0.382813,
2002-06-27, 03:32:00,VALID,918.364,VALID,0,VALID,96.5835,VALID,0.0339617,VALID,17.3545,VALID,56,VALID,0.397518,
2002-06-27, 03:33:00,VALID,918.367,VALID,0,VALID,96.3012,VALID,0,VALID,17.3065,VALID,56,VALID,0.44375,
2002-06-27, 03:34:00,VALID,918.384,VALID,0,VALID,96.5809,VALID,0.0169808,VALID,17.2673,VALID,56,VALID,0.480824,
2002-06-27, 03:35:00,VALID,918.377,VALID,0,VALID,96.8111,VALID,0.0509425,VALID,17.2839,VALID,56,VALID,0.231696,
2002-06-27, 03:36:00,VALID,918.366,VALID,0,VALID,97.045,VALID,0,VALID,17.2904,VALID,75,VALID,0.402539,